Regional Weather Roundup
Issued by NWS Mt. Holly, NJ

Home | Current Version | Previous Version | Text Only | Print | Product List | Glossary On
Versions: 1 2 3 4 5 6 7 8 9 10 11 12 13 14 15 16 17 18 19 20 21 22 23 24 25 26 27
000
ASUS41 KPHI 200813
RWRPHI

REGIONAL WEATHER ROUNDUP
NATIONAL WEATHER SERVICE MOUNT HOLLY NJ
400 AM EDT FRI APR 20 2018

NOTE:  "FAIR" INDICATES FEW OR NO CLOUDS BELOW 12,000 FEET WITH NO
SIGNIFICANT WEATHER AND/OR OBSTRUCTIONS TO VISIBILITY.

 * = STATION DOES NOT REPORT PRECIPITATION (E.G. RAIN, SNOW, ETC.)
        OR FOG.

NJZ015>026-200900-
SOUTHERN NEW JERSEY

CITY           SKY/WX    TMP DP  RH WIND       PRES   REMARKS
POMONA         FAIR      36  26  67 W6        30.12R WCI  31
WILDWOOD*      MOCLDY    42  27  55 N12G17    30.13S
MILLVILLE      CLOUDY    40  25  55 NW7       30.14R
WRIGHTSTOWN    FAIR      36  24  61 NW7       30.09R WCI  30
MOUNT HOLLY    FAIR      37  24  59 NW3       30.12R
TRENTON        FAIR      36  24  62 W6        30.10R WCI  31

$$
NJZ001>014-200900-
NORTHERN NEW JERSEY

CITY           SKY/WX    TMP DP  RH WIND       PRES   REMARKS
SUSSEX         MOCLDY    34  22  61 VRB3      30.05R
ANDOVER*         N/A     33  24  69 N6        30.06R WCI  28
MORRISTOWN     MOCLDY    36  25  64 NW7G18    30.08R WCI  30
NEWARK         MOCLDY    37  24  59 W14       30.07R WCI  28
TETERBORO      FAIR      37  24  59 W12G23    30.06R WCI  29
CALDWELL       MOCLDY    35  23  61 W6        30.07R WCI  30
SOMERVILLE     MOCLDY    36  25  64 VRB5G16   30.08R WCI  32
TOMS RIVER*    FAIR      35  24  64 W6        30.12R WCI  30

$$
PAZ043-044-047-054-055-060>062-066>071-200900-
EASTERN PENNSYLVANIA

CITY           SKY/WX    TMP DP  RH WIND       PRES   REMARKS
PHILADELPHIA   FAIR      38  22  52 NW14      30.15R WCI  30
NORTH PHILA    FAIR      38  25  59 W9        30.14R WCI  31
BLUE BELL*     FAIR      34  25  69 W5        30.14R WCI  30
DOYLESTOWN     FAIR      34  22  61 NW9       30.10R WCI  27
QUAKERTOWN*    CLEAR     34  21  60 W6        30.11R WCI  29
PERKASIE*      FAIR      32  21  64 NW8       30.11R WCI  25
POTTSTOWN      FAIR      34  22  61 NW8       30.14R WCI  27
LANCASTER      FAIR      36  24  62 NW10      30.16R WCI  28
COATESVILLE    FAIR      34  21  60 NW14G20   30.15R WCI  24
READING        FAIR      34  24  67 NW13      30.14R WCI  25
ALLENTOWN      FAIR      36  20  52 NW9       30.11R WCI  29
MOUNT POCONO   FLURRIES  27  23  85 NW18G29   30.01R WCI  14
HAZLETON       CLOUDY    32  21  64 NW12G22   30.10R WCI  23
LEHIGHTON      CLOUDY    36  21  55 NW3       30.13R
WILKES BARRE   CLOUDY    32  25  75 NW10      30.09R WCI  24

$$
DEZALL-MDZ008-012-015-019-020-200900-
DELAWARE AND EASTERN MARYLAND

CITY           SKY/WX    TMP DP  RH WIND       PRES   REMARKS
WILMINGTON     CLOUDY    39  25  57 NW15      30.16R WCI  31
DOVER          MOCLDY    39  24  54 W10       30.15R WCI  32
GEORGETOWN     FAIR      37  27  67 CALM      30.16R
EASTON         FAIR      40  23  50 NW12G18   30.23R WCI  33
ABERDEEN       MOCLDY    38  23  55 W8        30.19R WCI  32
PATUXENT       FAIR      44  25  47 N14       30.20
OCEAN CITY     FAIR      36  27  69 W3        30.16R
WALLOPS ISLAND FAIR      40  26  57 NW7       30.17R
CAMBRIDGE        N/A    N/A N/A N/A MISG        N/A
SALISBURY      FAIR      39  26  59 NW8       30.16R WCI  33

$$
PAZ001-021-NYZ056-072-MDZ011-DCZ001-200900-
OTHER NEARBY LOCATIONS

CITY           SKY/WX    TMP DP  RH WIND       PRES   REMARKS
HARRISBURG     MOCLDY    38  22  52 NW15      30.16R WCI  29
STATE COLLEGE    N/A     31  21  66 NW9       30.17R WCI  23
WILLIAMSPORT   CLOUDY    34  24  67 W9        30.16R WCI  27
BINGHAMTON     LGT SNOW  26  23  88 NW10G20   30.05R FOG     WCI  16
NEW YORK CITY  MOCLDY    37  24  59 NW7       30.08R WCI  32
BALTIMORE      FAIR      37  23  56 W9        30.20R WCI  30
WASHINGTON DC  FAIR      40  21  46 NW12      30.23R WCI  33

$$




USA.gov is the U.S. government's official web portal to all federal, state and local government web resources and services.